Location: ??????
(30.0081°N, 31.2109°E)
Time: 07:29:48
(UTC+00:00)

Cosmos 2333 Rocket - Pass Details

Date: 03 March 2021
Orbit: 837 x 864 km, 70.8° (Epoch: 15 April)

Event Time Altitude Azimuth Distance (km) Brightness Sun altitude
Rises 16:59:55 0° 187° (S) 3,376 5.4 -14.7°
Reaches altitude 10° 17:02:23 10° 183° (S) 2,447 4.6 -15.2°
Maximum altitude 17:07:51 55° 106° (ESE) 1,002 2.2 -16.4°
Drops below altitude 10° 17:13:23 10° 30° (NNE) 2,476 4.4 -17.6°
Sets 17:15:53 0° 26° (NNE) 3,418 5.1 -18.2°
